User: anonymous   Login
Location: Newark
(40.9833°N, 0.0333°W)
Time: 16:50:34
(UTC+00:00)
Language:

AO-85 - Orbit

View from above orbital plane
View from above orbital plane
View from above satellite
View from above satellite

Ground track
Ground track

The orbit data is extracted from the following two-line orbital elements,

1 40967U 15058D   19310.38819539  .00000244  00000 0  45836-4 0  8599
2 40967  64.7746  91.1394 0183179 156.3580 204.6081 14.76019686128501
Epoch (UTC): 06 November 2019 09:19:00
Eccentricity: 0.0183179
inclination: 64.7746°
perigee height: 513 km
apogee height: 770 km
right ascension of ascending node: 91.1394°
argument of perigee: 156.3580°
revolutions per day: 14.76019686
mean anomaly at epoch: 204.6081°
orbit number at epoch: 12850

The dashed part of the orbit path shows where the satellite is in the earth's shadow,  

DLR